Wind_Speed
58 61 61 59 58 57 58 58 58 55 54 55 57 55 51 51 52 50 48 46 43 41 40 40 38 37 36 35 34 33 32 32 32 32 32 32 33 34 34 34 35 36 37 37
59 61 56 55 57 58 58 58 57 55 55 56 58 58 55 53 53 51 49 47 44 43 42 41 40 39 38 37 36 35 34 35 34 34 34 35 36 36 36 36 37 38 39 39
59 56 53 56 58 58 59 57 55 54 54 57 59 60 58 54 53 52 50 48 46 44 43 42 42 41 40 39 38 37 37 37 36 36 37 37 37 37 37 38 39 40 40 40
56 55 55 56 57 57 57 54 53 54 54 56 59 61 58 55 55 53 50 48 46 45 45 44 44 43 42 40 40 39 38 38 38 39 39 39 38 38 39 40 41 41 41 40
54 55 56 56 54 54 54 52 53 53 54 56 58 61 60 56 55 53 50 48 47 47 46 45 44 43 42 42 41 41 40 40 39 39 39 40 39 40 40 41 41 41 41 41
50 51 54 54 52 53 53 52 52 53 54 58 57 60 62 55 52 50 49 47 47 47 47 45 44 43 43 42 42 42 42 41 40 40 40 40 40 40 40 40 41 41 40 40
49 51 52 53 55 54 55 55 54 54 57 58 55 59 61 51 48 47 46 46 47 46 45 44 44 43 43 42 41 41 41 41 41 41 40 39 39 39 40 40 40 40 40 40
48 50 51 52 55 55 55 56 57 56 56 55 55 58 55 49 45 44 44 46 46 46 45 45 44 44 43 42 42 41 41 40 40 40 39 39 39 39 39 39 40 40 40 40
47 48 49 51 52 54 55 56 54 54 53 53 55 52 51 48 43 41 42 44 44 44 44 44 44 44 43 43 42 41 41 40 40 39 39 39 38 39 39 39 39 39 39 39
48 46 46 48 52 54 54 53 54 55 54 53 53 50 46 43 40 38 40 41 41 41 41 41 42 42 42 42 41 41 40 40 39 39 38 38 38 38 38 38 38 38 38 38
47 48 45 48 51 52 55 56 55 53 53 52 49 46 41 38 37 37 37 39 39 39 39 39 40 40 40 40 40 40 39 38 38 37 37 37 37 36 36 36 37 37 36 36
44 47 47 45 45 47 52 55 55 54 52 51 47 43 39 37 36 35 36 37 38 38 38 38 38 38 38 38 38 38 37 37 36 36 35 35 35 35 35 35 35 35 35 34
41 45 45 45 46 47 50 53 53 53 52 49 46 42 40 37 34 33 33 35 36 36 37 37 37 37 36 36 36 36 35 35 35 34 34 34 33 34 34 34 33 33 33 33
42 44 45 45 45 46 49 49 51 52 54 51 45 41 41 38 35 33 33 34 35 35 35 36 36 36 35 35 34 34 34 33 33 33 33 32 32 32 32 31 32 32 32 32
43 44 44 44 45 45 47 48 49 52 50 48 44 42 39 39 35 34 34 35 35 35 35 35 35 35 34 33 33 33 32 32 31 31 31 30 30 30 30 30 30 30 30 31
42 44 45 43 44 45 47 48 48 49 48 46 44 42 39 38 37 36 36 36 35 34 34 35 35 34 33 33 32 32 31 30 29 29 29 29 29 29 29 29 29 29 30 30
39 42 45 44 43 46 48 47 46 46 47 46 44 40 39 39 38 37 37 37 36 35 34 34 34 34 33 32 32 31 30 29 28 28 28 28 28 28 28 28 28 29 29 30
37 39 43 43 42 43 43 42 44 43 44 45 45 42 40 39 38 39 39 38 37 36 35 35 34 34 33 32 31 30 29 28 28 28 28 28 27 27 27 28 28 29 29 30
36 37 39 41 41 41 42 41 41 42 44 43 45 44 42 40 42 42 41 40 39 38 37 35 34 33 33 32 31 30 29 28 28 28 28 27 27 27 27 28 28 29 30 30
35 37 39 41 42 40 39 39 41 42 43 43 44 44 42 42 43 41 40 40 39 38 37 36 35 34 33 32 31 30 29 29 28 28 27 27 27 27 27 27 28 29 30 31
31 34 37 39 41 41 39 39 41 42 40 41 42 42 42 42 40 37 39 40 40 39 38 37 36 35 33 32 31 30 29 29 28 28 27 27 27 27 27 28 29 29 30 31
30 31 34 40 41 40 38 39 41 41 42 41 40 41 41 40 39 39 40 40 40 39 38 37 36 35 34 32 31 30 30 29 28 28 28 28 28 27 28 29 29 30 31 32
30 31 32 37 39 39 38 39 39 41 42 41 40 39 40 40 40 39 39 39 39 38 38 37 35 35 34 33 32 31 30 29 28 28 28 28 28 28 28 29 29 30 31 32
30 32 34 37 41 41 39 39 39 40 41 42 40 39 38 39 39 38 38 38 37 36 37 37 36 35 34 33 32 31 30 29 28 28 28 28 28 28 29 29 30 30 31 32
31 33 34 36 39 40 39 39 39 39 40 41 40 40 39 38 38 37 37 38 37 36 36 35 35 34 33 32 31 31 30 29 28 28 28 28 29 29 29 29 30 31 32 32
33 33 35 36 37 38 39 40 40 39 38 40 40 39 39 36 36 36 35 35 36 36 35 35 34 33 33 32 31 30 29 29 28 28 28 29 29 29 29 30 31 31 32 33
Wind_Direction
230 230 231 232 234 235 235 235 235 233 233 235 236 235 232 231 233 233 233 234 234 235 236 237 239 240 241 243 244 246 249 251 253 256 258 261 263 266 269 273 275 277 279 281
229 230 231 231 231 232 232 232 232 232 232 233 235 235 232 231 233 233 234 234 235 235 236 239 240 241 243 245 246 248 250 252 255 257 258 261 263 267 270 273 275 276 278 280
229 230 230 230 229 229 230 231 231 232 233 234 235 235 233 232 233 234 234 235 236 237 238 239 241 243 244 246 248 250 251 253 255 257 259 262 265 267 270 273 274 276 278 279
228 227 228 229 228 229 229 229 231 232 233 234 235 236 232 232 233 234 235 235 236 239 240 241 243 244 246 247 248 250 252 253 255 258 260 263 265 267 269 271 273 276 278 279
227 226 226 227 227 228 229 229 231 232 234 235 235 238 232 231 233 234 235 237 238 239 241 243 244 246 247 247 249 250 252 254 256 258 260 262 265 267 268 270 272 274 276 277
225 225 226 226 225 226 226 227 229 231 233 235 233 238 235 230 232 234 236 237 238 239 241 243 244 245 246 247 248 250 252 254 256 258 260 262 264 265 267 269 271 273 275 277
222 223 224 223 221 222 223 224 226 229 232 235 232 236 236 230 231 234 235 237 238 239 240 242 243 244 246 247 249 251 252 254 256 258 259 261 263 265 267 268 270 272 275 277
225 222 221 222 221 220 222 223 225 228 232 235 235 236 236 233 230 231 233 235 238 239 239 240 241 243 245 247 249 251 253 254 255 257 259 260 262 265 266 268 270 272 273 275
226 224 221 223 222 221 222 223 226 229 232 234 236 235 234 233 230 229 231 234 237 238 239 240 242 243 244 246 248 250 252 253 255 257 259 260 262 264 266 268 269 271 272 274
227 226 222 221 223 221 221 223 225 226 231 234 235 233 230 230 230 229 230 232 234 236 238 239 241 242 243 245 247 249 251 252 255 257 259 260 262 263 265 267 269 271 272 274
227 227 224 224 223 221 220 221 223 226 231 234 235 232 228 228 229 229 229 230 232 234 236 238 239 240 242 244 245 247 249 251 254 256 258 259 261 263 265 267 269 270 272 274
224 226 228 226 225 223 223 224 225 226 230 232 234 230 228 228 229 228 228 229 230 232 234 236 238 239 240 242 244 246 248 250 252 255 257 258 260 263 265 267 268 270 272 274
222 225 228 228 226 222 222 222 224 226 229 231 231 227 226 227 227 226 226 226 228 230 232 234 236 237 239 241 243 245 247 249 251 254 256 258 260 263 265 267 269 270 272 274
223 224 226 227 227 225 223 223 223 225 226 228 226 224 225 226 226 226 224 224 226 228 230 232 234 236 237 239 241 244 246 248 251 252 255 257 260 262 264 266 268 270 272 273
224 224 224 226 227 226 224 224 225 225 226 227 225 225 224 226 226 224 223 222 224 226 227 230 232 234 236 238 240 242 245 248 250 253 255 257 260 262 264 266 268 270 271 273
227 226 225 225 226 227 226 223 224 224 224 224 223 222 220 222 223 222 221 222 223 225 226 229 231 233 235 237 239 241 244 247 249 252 255 257 259 262 264 266 268 270 272 274
229 228 226 225 227 228 228 224 224 225 223 223 222 220 221 221 220 221 222 223 224 224 225 228 229 231 232 234 237 241 243 246 249 252 254 256 259 262 264 266 268 270 272 275
228 229 228 225 224 227 225 224 224 223 221 221 222 221 222 221 219 221 222 222 222 222 223 225 227 228 230 233 236 240 243 246 249 252 254 257 259 262 265 267 269 271 273 276
228 226 227 225 224 224 222 221 221 222 220 220 222 222 221 220 219 218 218 219 220 221 222 223 225 227 229 232 236 239 243 246 249 251 254 257 260 263 266 268 270 272 274 277
230 229 227 226 225 221 217 219 221 222 220 218 221 221 222 222 223 219 219 220 220 221 223 224 225 227 230 233 236 240 243 246 249 252 255 258 261 264 267 269 271 273 276 279
231 230 227 225 225 220 217 216 218 220 218 218 220 221 222 223 222 218 219 220 220 221 223 224 225 228 230 233 237 240 244 246 249 253 255 258 261 265 268 270 272 275 278 280
228 227 226 224 222 218 216 214 215 217 216 217 218 221 222 221 220 218 218 219 220 222 223 225 226 228 231 233 237 240 243 247 250 253 255 258 262 266 269 271 274 277 280 282
226 223 221 221 218 216 216 213 212 213 214 216 218 220 220 219 219 220 219 221 223 223 224 226 228 229 231 234 237 240 243 247 250 253 256 260 263 267 270 273 276 279 281 283
226 222 219 218 215 216 216 213 211 211 213 215 217 218 219 219 220 222 221 221 222 223 224 226 228 230 232 234 236 239 243 247 250 253 257 260 264 268 271 275 277 280 282 285
222 220 220 217 215 215 214 214 212 211 212 213 215 218 219 220 220 220 221 221 222 224 226 227 228 230 232 234 237 240 244 247 250 254 258 262 266 270 273 276 279 281 284 286
218 219 218 216 214 214 211 210 211 210 210 211 212 215 217 218 219 219 218 219 221 224 226 227 229 231 233 235 237 240 244 247 251 255 260 265 269 271 274 277 280 283 285 287
Height
5613 5618 5625 5639 5648 5657 5663 5669 5677 5687 5692 5695 5700 5707 5717 5722 5726 5732 5739 5745 5751 5757 5762 5765 5769 5773 5776 5780 5782 5785 5787 5789 5790 5792 5793 5794 5795 5795 5795 5796 5795 5795 5794 5793
5598 5605 5621 5630 5635 5641 5648 5655 5665 5673 5679 5683 5688 5694 5703 5710 5716 5723 5730 5736 5742 5748 5752 5757 5760 5764 5768 5772 5775 5778 5780 5781 5783 5785 5786 5787 5787 5788 5788 5788 5788 5787 5786 5785
5586 5602 5611 5615 5621 5627 5635 5645 5655 5662 5667 5671 5676 5681 5691 5700 5706 5713 5720 5727 5732 5738 5743 5747 5751 5755 5759 5763 5767 5769 5771 5773 5775 5776 5777 5778 5779 5780 5780 5780 5779 5778 5777 5777
5576 5589 5595 5600 5609 5618 5626 5639 5645 5649 5654 5658 5664 5667 5680 5689 5696 5703 5711 5717 5723 5729 5733 5738 5742 5746 5750 5754 5757 5760 5762 5764 5766 5767 5769 5770 5771 5772 5772 5771 5770 5770 5769 5768
5566 5576 5582 5589 5601 5610 5619 5628 5633 5638 5641 5646 5651 5655 5668 5678 5686 5695 5703 5709 5714 5719 5723 5728 5733 5737 5740 5744 5747 5751 5753 5755 5757 5759 5760 5761 5762 5763 5763 5762 5761 5761 5760 5760
5556 5564 5571 5581 5592 5600 5607 5614 5620 5624 5627 5630 5642 5645 5654 5669 5679 5688 5695 5700 5704 5709 5714 5719 5723 5726 5730 5734 5737 5741 5743 5746 5748 5750 5751 5752 5753 5753 5753 5753 5752 5752 5752 5751
5544 5552 5560 5570 5578 5586 5593 5601 5607 5610 5613 5620 5634 5633 5644 5664 5673 5680 5685 5690 5694 5699 5704 5709 5713 5717 5721 5724 5728 5731 5734 5736 5738 5740 5742 5743 5744 5744 5744 5744 5744 5744 5743 5742
5534 5541 5550 5558 5566 5575 5583 5590 5597 5602 5607 5616 5621 5625 5641 5655 5664 5670 5675 5679 5683 5689 5694 5699 5703 5707 5711 5715 5718 5721 5724 5727 5729 5730 5732 5733 5734 5735 5735 5735 5735 5735 5734 5734
5525 5534 5543 5550 5559 5566 5572 5578 5589 5595 5600 5606 5609 5621 5633 5644 5653 5660 5665 5670 5674 5679 5684 5689 5693 5698 5702 5705 5709 5712 5714 5717 5719 5721 5723 5724 5725 5726 5726 5726 5726 5726 5726 5725
5517 5524 5532 5540 5547 5554 5563 5572 5578 5583 5589 5595 5602 5613 5626 5637 5645 5651 5656 5661 5665 5670 5674 5679 5684 5688 5692 5695 5699 5702 5705 5707 5710 5712 5713 5715 5716 5717 5717 5717 5717 5717 5717 5716
5507 5515 5523 5529 5535 5545 5554 5560 5566 5574 5581 5589 5596 5609 5622 5630 5636 5641 5647 5651 5656 5661 5665 5670 5674 5678 5682 5686 5689 5693 5696 5698 5701 5703 5704 5706 5707 5707 5708 5708 5709 5708 5708 5708
5499 5506 5513 5521 5531 5538 5544 5551 5558 5566 5573 5582 5590 5605 5613 5621 5626 5632 5637 5642 5647 5652 5657 5661 5665 5669 5673 5677 5680 5683 5686 5689 5691 5693 5695 5697 5698 5699 5699 5700 5700 5700 5700 5699
5490 5497 5504 5512 5520 5525 5531 5539 5548 5557 5565 5572 5582 5597 5605 5612 5618 5623 5629 5634 5639 5644 5648 5653 5657 5661 5665 5668 5672 5675 5678 5680 5683 5685 5686 5688 5689 5690 5691 5691 5691 5691 5691 5691
5481 5487 5495 5501 5508 5516 5523 5531 5539 5546 5554 5564 5576 5588 5596 5604 5611 5616 5621 5626 5631 5635 5640 5644 5648 5652 5656 5660 5663 5666 5669 5672 5674 5676 5678 5680 5681 5682 5683 5683 5683 5683 5683 5683
5473 5480 5486 5493 5500 5507 5515 5524 5531 5539 5549 5559 5572 5580 5589 5596 5602 5608 5613 5618 5622 5628 5632 5636 5640 5644 5648 5651 5655 5658 5661 5664 5666 5668 5670 5672 5673 5674 5674 5675 5675 5675 5675 5675
5465 5472 5478 5486 5492 5498 5506 5515 5523 5532 5543 5553 5562 5571 5580 5587 5592 5599 5604 5610 5615 5620 5624 5628 5632 5636 5640 5643 5647 5650 5653 5656 5658 5660 5662 5663 5665 5666 5666 5667 5667 5667 5667 5667
5458 5465 5471 5478 5485 5490 5499 5509 5518 5527 5537 5546 5554 5566 5571 5577 5583 5590 5596 5601 5606 5611 5616 5620 5625 5629 5632 5636 5639 5642 5645 5648 5650 5652 5654 5656 5657 5658 5659 5659 5659 5660 5659 5659
5452 5458 5464 5471 5478 5484 5498 5505 5512 5521 5529 5538 5546 5553 5560 5567 5574 5580 5586 5592 5597 5603 5608 5612 5617 5621 5625 5628 5631 5635 5638 5640 5643 5645 5646 5648 5649 5650 5651 5651 5652 5652 5652 5651
5445 5451 5457 5464 5470 5478 5490 5498 5506 5513 5521 5530 5536 5543 5550 5556 5562 5569 5576 5582 5589 5594 5600 5604 5609 5613 5617 5621 5624 5627 5630 5633 5635 5637 5639 5640 5642 5643 5643 5644 5644 5644 5644 5643
5438 5443 5450 5457 5464 5473 5486 5492 5498 5505 5512 5521 5527 5533 5540 5546 5553 5564 5569 5575 5581 5586 5591 5596 5601 5605 5610 5614 5617 5621 5623 5626 5628 5630 5631 5633 5634 5635 5636 5636 5636 5636 5636 5635
5432 5436 5442 5449 5456 5466 5477 5483 5489 5499 5507 5512 5518 5525 5531 5538 5548 5557 5560 5566 5572 5578 5583 5588 5593 5598 5602 5606 5610 5614 5616 5619 5621 5623 5624 5626 5627 5628 5628 5629 5629 5628 5628 5627
5425 5430 5436 5442 5450 5463 5470 5475 5482 5489 5496 5503 5510 5516 5523 5532 5539 5546 5551 5557 5563 5570 5576 5581 5586 5591 5595 5599 5603 5606 5609 5612 5614 5616 5617 5618 5619 5620 5621 5621 5620 5620 5619 5618
5418 5424 5429 5436 5446 5454 5460 5466 5473 5480 5488 5495 5501 5508 5516 5523 5531 5538 5544 5550 5557 5563 5569 5574 5579 5584 5588 5592 5596 5599 5602 5604 5607 5608 5610 5611 5612 5612 5613 5613 5612 5612 5611 5610
5411 5416 5422 5428 5437 5445 5452 5458 5466 5473 5480 5487 5495 5502 5509 5516 5523 5530 5537 5543 5549 5556 5561 5566 5572 5576 5581 5585 5589 5592 5594 5597 5599 5601 5602 5603 5604 5605 5605 5605 5604 5604 5602 5601
5404 5409 5414 5421 5430 5437 5444 5452 5459 5466 5473 5480 5488 5495 5502 5509 5516 5523 5529 5536 5542 5548 5554 5559 5564 5569 5573 5577 5581 5584 5587 5590 5592 5593 5595 5596 5596 5597 5597 5597 5596 5595 5594 5592
5398 5402 5408 5415 5422 5429 5437 5445 5452 5459 5466 5473 5481 5489 5496 5503 5510 5516 5523 5529 5536 5541 5547 5552 5557 5562 5566 5570 5573 5577 5580 5582 5584 5586 5587 5588 5589 5589 5589 5588 5587 5586 5585 5583